Location: ?
(35.4064°N, 139.3593°E)
Time: 18:34:14
(UTC+00:00)

Cosmos 2056 Rocket - Pass Details

Date: 18 April 2024
Orbit: 739 x 799 km, 74.0° (Epoch: 27 May)

Event Time Altitude Azimuth Distance (km) Brightness Sun altitude
Rises 18:16:24 0° 338° (NNW) 3,299 6.9 -21.2°
Reaches altitude 10° 18:18:50 10° 335° (NNW) 2,371 6.1 -20.8°
Maximum altitude 18:24:08 60° 256° (WSW) 913 3.5 -19.8°
Drops below altitude 10° 18:29:26 10° 178° (S) 2,360 5.8 -18.9°
Sets 18:31:50 0° 174° (S) 3,283 6.5 -18.5°
